Volver al catálogo

STARLINK-11225

ActivoComunicacionesVLEO
NORAD 60912·PAYLOAD·🇺🇸 United States

Lanzado Aug 31, 2024 desde Cape Canaveral Space Force Station

Loading…

Próximos Pases (próximas 24 horas)

TLE

ActualizadoSource: CelesTrak SupGP

Época: Sep 14, 2026, 15:04 UTC

1 60912C 24154K   26257.62826389  .00030966  00000+0  25513-3 0  2579
2 60912  53.1570 279.8307 0001217  72.4912 148.5358 15.69689502    19

Sigue STARLINK-11225 en tiempo real con AllMySat

Download on the App Store